Home   Weather   Charleston   Past weeks

Flag for USA Past Weather in Charleston, West Virginia, USA — Yesterday and Last 2 Weeks

Now
69 °F

Passing clouds.


Feels Like: 69 °F
Forecast: 37 / 67 °F
Wind: 10 mph from South

Location: Yeager Airport

Current Time: Feb 24, 2017 at 11:40:36 pm

Latest Report: Feb 24, 2017 at 10:54 pm


Visibility: 10 mi

Pressure: 29.61 "Hg

Humidity: 49%

Dew Point: 49 °F

Location of CharlestonLocation

Past Weather in Charleston — Graph

°F

Charleston Temperature Yesterday

Maximum temperature yesterday: 67 °F (at 2:17 pm)
Minimum temperature yesterday: 48 °F (at 5:54 am)
Average temperature yesterday: 57 °F

High & Low Weather Summary for the Past Weeks

 TemperatureHumidityPressure
High80 °F (Feb 24, 3:54 pm)100% (Feb 20, 6:54 am)30.45 "Hg (Feb 20, 6:54 am)
Low18 °F (Feb 10, 12:54 am)24% (Feb 17, 3:54 pm)29.60 "Hg (Feb 24, 8:54 pm)
Average49 °F61%29.97 "Hg
* Reported Feb 9 9:54 pm — Feb 24 9:54 pm, Charleston, Weather by CustomWeather, © 2017

Note: Actual official high and low records may vary slightly from our data, if they occured in-between our weather recording intervals... More about our weather records

Advertising

Charleston Weather History for the Previous 24 Hours

Scroll right to see more
 ConditionsComfort  
Time TempWeatherWind HumidityBarometerVisibility
9:54 pm
Fri, Feb 24
69 °FPassing clouds.6 mph47%29.62 "Hg10 mi
8:54 pm70 °FPassing clouds.8 mph41%29.60 "Hg10 mi
7:54 pm72 °FPassing clouds.7 mph34%29.61 "Hg10 mi
6:54 pm74 °FPassing clouds.7 mph32%29.60 "Hg10 mi
5:54 pm77 °FPassing clouds.13 mph30%29.61 "Hg10 mi
4:54 pm80 °FPassing clouds.12 mph28%29.62 "Hg10 mi
3:54 pm80 °FScattered clouds.10 mph30%29.64 "Hg10 mi
2:54 pm79 °FScattered clouds.10 mph30%29.65 "Hg10 mi
1:54 pm78 °FPassing clouds.10 mph32%29.69 "Hg10 mi
12:54 pm77 °FScattered clouds.13 mph35%29.74 "Hg10 mi
11:54 am74 °FSunny.8 mph40%29.77 "Hg10 mi
10:54 am71 °FSunny.8 mph45%29.80 "Hg10 mi
9:54 am65 °FSunny.3 mph61%29.82 "Hg10 mi
8:54 am54 °FSunny.No wind86%29.83 "Hg10 mi
7:54 am49 °FScattered clouds.No wind97%29.83 "Hg10 mi
6:54 am47 °FPassing clouds.No wind93%29.83 "Hg10 mi
5:54 am49 °FPassing clouds.No wind90%29.82 "Hg10 mi
4:54 am48 °FPassing clouds.No wind96%29.80 "Hg10 mi
3:54 am49 °FPassing clouds.No wind93%29.80 "Hg10 mi
2:54 am50 °FPassing clouds.No wind93%29.80 "Hg10 mi
1:54 am51 °FPassing clouds.No wind96%29.80 "Hg10 mi
12:54 am51 °FPassing clouds.No wind92%29.81 "Hg10 mi
12:16 am51 °FPassing clouds.No wind100%29.82 "Hg10 mi
11:54 pm
Thu, Feb 23
51 °FPassing clouds.No wind96%29.81 "Hg10 mi
Weather by CustomWeather, © 2017

See weather overviewHow to use our weather pages